Flag for Czech Republic Weather past 2 weeks in Brno, Czech Republic

Now
63 °F

Thunderstorms. Overcast.


Feels Like: 63 °F
Forecast: 48 / 70 °F
Wind: 9 mph from East

Location: Brno / Turany


UV Index: 0 (Low)

Visibility: 8 mi


Pressure: 29.96 "Hg

Humidity: 57%

Dew point: 48 °F

Location of BrnoLocation

Historic Weather in Brno

°F

Brno temperature yesterday

Maximum temperature yesterday: 67 °F (at 3:00 PM)
Minimum temperature yesterday: 47 °F (at 5:00 AM)
Average temperature yesterday: 57 °F

Past Weeks' High & Low Weather Summary

 TemperatureHumidityPressure
High71 °F (Apr 24, 3:00 PM)98% (Apr 23, 6:00 AM)30.35 "Hg (Apr 23, 6:00 AM)
Low33 °F (Apr 18, 6:00 AM)28% (Apr 18, 4:00 PM)29.75 "Hg (Apr 21, 7:00 PM)
Average50 °F68%29.99 "Hg
* Reported Apr 9 8:00 PM — Apr 24 8:00 PM, Brno, Weather by CustomWeather, © 2014

Note: Actual official high and low records may vary slightly from our data, if they occured in-between our weather recording intervals... More about our weather records

Advertising

Historic Weather Conditions — Data for Previous 24 hours

 ConditionsComfort  
Time TempWeatherWind HumidityBarometerVisibility
8:00 PM
Apr 24
63 °FThunderstorms. Overcast.9 mph57%29.96 "Hg7 mi
7:00 PM69 °FPartly sunny.6 mph45%29.93 "Hg11 mi
6:00 PM70 °FPartly sunny.8 mph46%29.93 "Hg9 mi
5:00 PM71 °FPartly sunny.9 mph47%29.93 "Hg9 mi
4:00 PM70 °FPartly sunny.8 mph48%29.94 "Hg12 mi
3:00 PM71 °FPartly sunny.9 mph47%29.96 "Hg16 mi
2:00 PM70 °FPartly sunny.9 mph49%29.98 "Hg16 mi
1:00 PM69 °FOvercast.8 mph49%29.99 "Hg16 mi
12:00 PM67 °FPartly sunny.8 mph57%30.01 "Hg12 mi
11:00 AM66 °FOvercast.6 mph58%30.02 "Hg10 mi
10:00 AM61 °FPartly sunny.1 mph77%30.04 "Hg7 mi
9:00 AM58 °FPartly sunny.2 mph81%30.04 "Hg7 mi
8:00 AM54 °FOvercast.2 mph89%30.05 "Hg7 mi
7:00 AM51 °FOvercast.1 mph88%30.05 "Hg9 mi
6:00 AM53 °FPartly sunny.1 mph85%30.05 "Hg11 mi
5:00 AM52 °FPassing clouds.2 mph86%30.04 "Hg12 mi
4:00 AM52 °FPassing clouds.1 mph85%30.05 "Hg12 mi
3:00 AM53 °FPassing clouds.3 mph85%30.06 "Hg12 mi
2:00 AM53 °FPassing clouds.3 mph84%30.06 "Hg12 mi
1:00 AM54 °FPassing clouds.3 mph83%30.07 "Hg12 mi
12:00 AM56 °FPassing clouds.3 mph77%30.06 "Hg12 mi
11:00 PM
Apr 23
57 °FPassing clouds.5 mph78%30.06 "Hg12 mi
10:00 PM60 °FPassing clouds.5 mph72%30.06 "Hg12 mi
9:00 PM61 °FPassing clouds.1 mph68%30.06 "Hg12 mi
Weather by CustomWeather, © 2014

See weather overview